Wind_Speed
40 40 40 39 39 39 39 38 38 37 35 35 36 36 37 37 36 36 35 35 35 35 35 34 33 33 33 33 33 32 32 32 33 33 33 33 33 34
39 38 39 39 38 38 38 37 37 37 36 35 36 37 37 36 36 36 35 35 35 35 34 34 34 33 33 33 33 33 33 33 32 33 33 33 33 33
38 37 37 36 36 37 37 37 36 36 35 34 34 35 35 36 35 35 35 35 35 35 34 34 33 33 33 33 32 32 31 32 32 33 33 33 33 32
38 37 36 36 35 35 36 36 36 35 35 34 34 34 35 35 35 35 35 35 35 34 33 33 33 33 33 32 32 31 31 32 32 32 32 31 31 30
36 36 36 36 35 35 36 36 36 36 36 35 35 34 35 35 35 35 35 35 34 34 33 33 33 33 33 32 32 31 31 31 31 30 30 29 29 28
36 36 35 35 35 36 36 36 36 36 37 37 37 36 36 36 36 35 34 33 33 33 33 33 33 33 32 31 31 31 30 30 30 30 29 28 27 26
35 36 36 35 35 35 36 36 36 36 36 37 37 37 37 36 35 34 33 32 32 32 32 33 33 32 31 30 30 30 30 29 29 28 27 26 25 23
36 36 37 36 36 36 36 37 36 36 36 37 37 36 35 34 33 32 32 32 31 32 31 31 31 31 30 29 29 29 27 26 26 26 24 23 23 22
36 36 35 35 36 36 36 37 37 36 37 37 35 35 34 33 32 32 32 32 31 31 30 30 30 29 28 28 27 26 25 25 25 25 23 22 22 21
37 37 37 36 37 36 36 36 36 37 37 36 35 34 33 32 32 32 31 31 30 30 30 29 28 27 26 26 25 24 24 24 25 24 23 22 21 20
37 38 38 38 37 36 37 37 36 36 35 35 34 33 33 32 32 32 31 31 30 30 29 28 27 25 24 24 23 23 23 24 24 24 23 22 20 19
37 37 38 39 39 37 37 36 35 35 35 34 33 32 32 32 32 31 30 30 30 28 27 27 25 24 23 22 23 23 23 24 24 23 22 20 18 17
36 36 36 37 37 38 37 36 36 35 35 34 33 33 32 31 30 30 29 29 28 27 26 25 24 23 22 21 22 22 22 22 21 21 20 19 17 15
36 36 36 36 36 36 36 35 35 34 34 33 32 31 30 30 29 29 28 27 26 25 24 24 23 22 21 21 20 20 21 21 20 20 18 16 15 13
37 37 36 36 36 36 35 35 35 34 33 33 32 31 29 29 28 27 26 26 25 24 24 24 23 21 21 20 19 20 20 20 19 18 16 15 14 13
37 35 35 35 36 35 34 34 34 34 33 31 30 29 28 28 27 26 26 25 24 23 23 22 20 20 20 19 19 18 18 17 17 16 15 15 14 13
36 35 34 34 34 34 33 33 32 32 31 30 29 28 27 27 26 25 25 24 23 22 21 21 20 19 19 18 17 17 16 16 15 15 15 14 13 12
34 34 33 33 33 32 32 32 31 31 30 29 28 27 26 26 25 24 24 23 22 21 20 19 18 18 18 17 17 16 15 15 14 14 14 13 13 12
33 33 33 32 31 31 30 30 30 29 28 28 28 27 26 25 25 24 23 22 20 20 19 17 17 17 17 16 15 15 14 13 13 12 12 12 12 12
32 32 32 31 30 30 29 29 28 28 27 27 27 27 26 25 24 23 21 20 19 18 17 16 16 15 15 15 14 13 12 12 12 11 11 11 11 11
30 30 30 30 29 29 28 28 28 27 27 27 27 27 26 25 24 22 21 20 19 18 17 16 16 15 14 13 12 11 11 11 11 10 10 10 11 11
29 29 29 30 29 29 28 28 28 27 27 27 26 26 25 25 24 23 21 21 20 19 17 16 16 14 13 12 11 11 10 10 10 10 10 9 9 8
28 28 28 28 28 28 27 26 26 27 27 26 25 24 23 24 24 23 22 22 21 19 18 17 16 14 13 12 11 10 9 9 9 9 9 8 8 7
Wind_Direction
271 272 273 275 277 277 278 280 282 281 282 284 286 288 290 291 293 295 296 297 299 301 302 303 303 304 304 304 302 300 299 299 299 298 297 296 295 293
272 274 276 277 278 279 279 280 281 283 282 284 286 288 290 291 293 293 295 296 297 300 301 302 303 304 304 303 301 300 301 300 299 298 299 297 296 294
272 272 274 275 275 278 279 280 283 284 285 286 288 290 292 292 292 294 295 296 297 299 300 301 302 304 304 303 302 303 302 302 302 301 300 298 297 295
272 272 274 274 275 277 278 279 281 283 285 286 289 291 292 292 293 294 296 297 297 298 298 299 302 303 304 302 301 300 302 304 303 303 302 301 299 296
271 272 273 273 274 274 276 278 280 282 284 285 289 291 293 293 293 293 295 296 297 296 298 298 299 301 303 302 301 301 302 304 304 305 305 304 303 299
271 272 272 272 272 272 274 276 279 280 282 284 287 289 292 293 294 294 294 295 295 296 297 297 298 300 301 301 300 301 303 304 304 305 306 306 305 301
271 271 271 272 273 273 273 275 277 279 281 283 287 289 291 292 293 294 293 293 293 295 297 298 299 300 300 300 300 302 304 304 305 306 306 305 305 304
270 271 272 273 274 273 273 273 276 278 281 283 285 288 289 290 291 293 291 291 293 295 296 297 298 299 299 299 300 302 304 305 306 307 307 306 304 302
270 271 272 273 274 273 272 273 276 278 281 283 284 286 288 289 289 290 290 292 294 294 294 296 298 299 298 298 299 302 304 305 307 308 306 304 304 302
271 272 273 273 273 272 272 274 276 277 279 281 283 283 284 285 286 288 289 290 293 294 294 296 298 298 298 299 299 302 304 306 307 307 306 304 303 301
271 271 272 272 272 272 271 273 275 276 277 280 280 281 282 282 285 286 287 288 291 293 294 295 296 296 297 299 299 301 304 307 309 308 306 304 302 301
271 271 270 271 271 272 272 272 273 274 276 277 278 279 280 281 283 284 284 286 288 290 292 294 296 297 297 297 299 301 304 306 308 309 307 305 303 301
271 271 271 271 271 272 272 271 272 272 273 274 275 277 277 280 282 282 283 285 288 290 291 294 296 298 299 299 300 302 305 308 308 309 309 308 304 302
270 272 272 272 272 273 272 271 271 271 272 273 274 275 276 277 279 279 281 283 287 289 290 292 295 296 297 299 300 301 304 306 307 307 309 308 306 305
271 272 272 271 271 272 271 271 271 271 272 272 273 273 273 274 275 277 279 280 283 286 288 289 292 295 297 299 301 302 303 304 304 304 304 303 303 302
269 270 271 271 270 270 270 271 271 270 270 269 269 269 269 270 271 274 276 276 278 281 284 286 289 294 297 300 301 302 305 306 303 300 300 301 303 304
267 269 269 269 269 268 268 270 270 271 270 267 267 267 267 268 268 271 273 275 275 278 280 282 287 292 295 299 301 302 305 304 302 298 297 298 298 301
267 267 268 267 267 267 267 268 269 269 268 267 266 266 266 266 266 268 270 271 273 273 274 277 282 286 288 293 297 301 302 302 302 301 299 297 295 298
267 267 267 267 268 267 267 267 267 267 266 266 265 264 264 264 263 264 266 265 266 267 268 271 275 280 284 288 293 297 298 299 301 303 300 298 299 300
266 265 265 265 267 267 265 265 264 264 264 265 264 263 262 260 260 260 260 260 259 260 263 265 270 276 279 283 286 290 292 294 297 300 299 300 303 303
265 265 264 263 265 265 264 262 262 261 263 264 264 263 261 258 256 256 255 256 255 255 257 260 265 271 274 277 281 285 287 290 293 295 299 302 306 306
266 266 265 264 262 263 262 261 260 259 261 262 261 261 259 256 254 252 252 253 253 253 254 256 258 262 269 273 277 284 287 290 291 294 300 307 311 312
267 266 265 264 263 261 259 258 259 258 257 258 257 257 255 254 253 251 250 251 251 251 252 252 252 256 263 269 272 277 284 287 290 297 306 314 315 313
Height
5712 5713 5713 5713 5713 5713 5712 5712 5711 5711 5711 5709 5706 5704 5701 5698 5695 5692 5688 5685 5682 5678 5675 5671 5667 5663 5659 5656 5653 5649 5646 5643 5640 5637 5633 5630 5627 5625
5702 5702 5703 5704 5704 5703 5703 5702 5701 5701 5700 5700 5697 5694 5692 5689 5686 5683 5680 5676 5673 5670 5667 5663 5659 5656 5652 5648 5645 5642 5638 5635 5632 5628 5624 5621 5618 5615
5692 5692 5693 5693 5694 5694 5693 5693 5693 5691 5691 5690 5688 5685 5683 5680 5677 5674 5671 5668 5665 5662 5659 5655 5652 5648 5645 5641 5637 5634 5630 5627 5623 5620 5616 5612 5609 5606
5682 5683 5683 5683 5684 5684 5684 5684 5684 5683 5682 5681 5679 5677 5674 5671 5668 5665 5662 5659 5656 5653 5650 5647 5644 5640 5637 5633 5629 5626 5623 5619 5615 5611 5607 5604 5600 5597
5673 5673 5674 5674 5674 5674 5674 5674 5674 5673 5673 5672 5670 5668 5665 5662 5659 5657 5653 5651 5648 5645 5642 5639 5636 5632 5629 5625 5621 5618 5615 5611 5607 5603 5599 5595 5592 5589
5663 5664 5664 5664 5664 5665 5665 5665 5664 5664 5663 5662 5661 5658 5656 5653 5650 5647 5645 5642 5639 5637 5633 5630 5627 5623 5620 5617 5613 5610 5606 5603 5599 5595 5591 5588 5584 5581
5654 5654 5654 5654 5654 5655 5655 5655 5654 5654 5653 5652 5650 5648 5646 5643 5640 5638 5636 5633 5631 5628 5625 5622 5619 5616 5612 5608 5605 5602 5598 5595 5591 5588 5584 5581 5577 5575
5644 5644 5644 5644 5645 5645 5644 5645 5645 5644 5643 5642 5640 5638 5636 5633 5631 5628 5627 5625 5624 5622 5618 5614 5611 5607 5604 5600 5597 5594 5591 5588 5584 5581 5578 5575 5572 5569
5633 5634 5634 5634 5634 5634 5634 5634 5634 5634 5633 5632 5630 5628 5627 5625 5623 5621 5618 5616 5615 5612 5609 5606 5603 5600 5596 5593 5590 5587 5584 5581 5578 5575 5572 5569 5566 5564
5622 5623 5623 5624 5624 5624 5624 5624 5624 5624 5623 5622 5621 5620 5618 5616 5614 5612 5610 5609 5607 5604 5601 5599 5596 5593 5589 5586 5583 5580 5578 5575 5572 5569 5566 5563 5561 5558
5612 5612 5613 5613 5613 5613 5614 5614 5614 5613 5612 5612 5611 5610 5608 5607 5606 5604 5602 5601 5599 5597 5594 5592 5589 5586 5583 5580 5577 5574 5572 5569 5566 5563 5560 5558 5555 5553
5601 5602 5602 5602 5602 5602 5603 5603 5603 5603 5602 5602 5601 5600 5599 5598 5597 5596 5594 5593 5591 5589 5587 5585 5582 5580 5578 5575 5572 5569 5566 5563 5560 5557 5554 5552 5550 5548
5590 5591 5591 5591 5591 5592 5592 5592 5592 5592 5592 5592 5591 5591 5590 5589 5588 5587 5586 5584 5583 5581 5580 5577 5575 5573 5571 5569 5567 5564 5561 5558 5555 5552 5549 5547 5545 5544
5580 5580 5580 5581 5581 5581 5581 5581 5581 5582 5582 5582 5582 5581 5581 5581 5580 5579 5577 5576 5575 5574 5572 5570 5569 5567 5565 5563 5561 5558 5555 5553 5550 5548 5545 5543 5541 5540
5569 5569 5570 5570 5570 5570 5570 5570 5570 5571 5571 5572 5572 5572 5571 5571 5571 5570 5569 5568 5567 5566 5565 5564 5562 5561 5559 5557 5555 5553 5551 5548 5546 5543 5541 5540 5538 5537
5558 5558 5559 5559 5559 5560 5560 5560 5560 5560 5561 5561 5562 5562 5562 5562 5563 5563 5562 5561 5561 5560 5559 5558 5556 5555 5553 5551 5550 5548 5546 5543 5541 5539 5538 5536 5535 5534
5547 5548 5548 5549 5549 5549 5549 5549 5550 5550 5551 5552 5552 5552 5553 5553 5554 5554 5554 5554 5554 5553 5553 5552 5551 5549 5548 5547 5545 5543 5541 5539 5537 5536 5534 5533 5532 5531
5536 5537 5538 5538 5539 5539 5539 5540 5540 5540 5541 5542 5543 5544 5544 5545 5546 5546 5547 5547 5547 5547 5546 5546 5545 5544 5544 5542 5541 5539 5537 5536 5534 5532 5531 5530 5529 5528
5526 5526 5527 5528 5528 5529 5529 5530 5531 5531 5532 5533 5534 5535 5536 5537 5537 5538 5539 5539 5540 5540 5540 5540 5540 5540 5539 5538 5537 5535 5534 5532 5531 5530 5528 5527 5526 5525
5515 5516 5516 5518 5518 5519 5520 5521 5522 5523 5524 5525 5526 5527 5528 5529 5530 5531 5532 5532 5533 5534 5534 5535 5535 5535 5534 5534 5533 5531 5530 5529 5528 5527 5526 5524 5523 5522
5505 5506 5507 5508 5508 5509 5510 5512 5513 5515 5516 5517 5518 5519 5520 5521 5522 5523 5525 5526 5527 5528 5529 5530 5530 5530 5529 5529 5529 5528 5527 5526 5525 5524 5523 5522 5521 5519
5496 5496 5497 5498 5499 5500 5501 5502 5504 5506 5507 5508 5510 5511 5512 5513 5515 5517 5518 5520 5521 5522 5523 5524 5524 5525 5526 5526 5525 5525 5524 5523 5522 5521 5520 5520 5518 5517
5487 5487 5488 5489 5490 5491 5492 5493 5495 5497 5499 5500 5502 5503 5504 5506 5508 5510 5511 5513 5514 5516 5517 5519 5520 5521 5522 5522 5522 5522 5521 5521 5520 5519 5518 5517 5516 5515